Weather History for Burley, ID

Change the Weather History Date:

Sunday, July 28, 2013

  Actual Average Record
Temperature  
Mean Temperature 70 °F 71 °F  
Max Temperature 83 °F 87 °F 102 °F (1995)
Min Temperature 56 °F 55 °F 46 °F (1963)
Degree Days  
Heating Degree Days 0 0  
Month to date heating degree days 0 20  
Since 1 June heating degree days 101 154  
Since 1 July heating degree days 0 20  
Cooling Degree Days 5 6  
Month to date cooling degree days 249 142  
Year to date cooling degree days 345 195  
Since 1 June cooling degree days 335 189  
Growing Degree Days 20 (Base 50)    
Moisture  
Dew Point 51 °F    
Average Humidity 61    
Maximum Humidity 93    
Minimum Humidity 28    
Precipitation  
Precipitation 0.01 in 0.01 in 0.49 in (1956)
Month to date precipitation 0.04 0.27  
Year to date precipitation 2.33 6.33  
Sea Level Pressure  
Sea Level Pressure 29.79 in    
Wind  
Wind Speed 5 mph (SSE)    
Max Wind Speed 18 mph    
Max Gust Speed 23 mph    
Visibility 10 miles    
Events Rain    
T = Trace of Precipitation, MM = Missing Value Source: NWS Daily Summary

Daily Weather History Graph

Daily Weather History Graph

Search for Another Location

Airport:

Trip Planner

Search our weather history database for the weather conditions in past years. The results will help you decide how hot, cold, wet, or windy it might be!

Date:

Astronomy

Jul. 28, 2013 Rise Set
Actual Time 6:23 AM MDT 8:59 PM MDT
Civil Twilight 5:51 AM MDT 9:31 PM MDT
Nautical Twilight 5:10 AM MDT 10:11 PM MDT
Astronomical Twilight 4:24 AM MDT 10:57 PM MDT
Moon No Moon Rise 1:20 PM MDT (7/28)
Length of Visible Light 15h 40m
Length of Day
14h 35m
Waning Gibbous, 60% of the Moon is Illuminated
Jul 28
Waning Gibbous
Jul 29
Last Quarter
Aug 6
New
Aug 14
First Quarter
Aug 20
Full

Hourly Weather History & Observations

Time (MDT) Temp. Dew Point Humidity Pressure Visibility Wind Dir Wind Speed Gust Speed Precip Events Conditions
12:53 AM 72.0 °F 51.1 °F 48% 29.78 in 10.0 mi South 16.1 mph - N/A   Scattered Clouds
1:53 AM 64.9 °F 53.1 °F 65% 29.79 in 10.0 mi North 4.6 mph - N/A   Clear
2:53 AM 62.1 °F 53.1 °F 72% 29.80 in 10.0 mi Calm Calm - N/A   Clear
3:53 AM 60.1 °F 54.0 °F 80% 29.79 in 10.0 mi East 4.6 mph - N/A   Clear
4:53 AM 59.0 °F 55.0 °F 87% 29.80 in 10.0 mi NE 3.5 mph - N/A   Clear
5:53 AM 57.0 °F 54.0 °F 89% 29.81 in 10.0 mi Calm Calm - N/A   Clear
6:53 AM 57.0 °F 55.0 °F 93% 29.82 in 10.0 mi East 3.5 mph - N/A   Clear
7:53 AM 59.0 °F 55.0 °F 87% 29.83 in 10.0 mi Calm Calm - N/A   Clear
8:53 AM 66.9 °F 55.9 °F 68% 29.84 in 10.0 mi Calm Calm - N/A   Clear
11:53 AM 64.9 °F 52.0 °F 63% 29.86 in 10.0 mi NNW 4.6 mph - 0.01 in Rain Light Rain
12:53 PM 73.0 °F 53.1 °F 49% 29.82 in 10.0 mi South 4.6 mph - 0.00 in   Partly Cloudy
1:53 PM 78.1 °F 48.0 °F 35% 29.82 in 10.0 mi Variable 4.6 mph - N/A   Clear
2:53 PM 81.0 °F 46.0 °F 29% 29.78 in 10.0 mi SE 4.6 mph - N/A   Clear
3:53 PM 80.1 °F 46.9 °F 31% 29.78 in 10.0 mi Calm Calm - N/A   Clear
4:53 PM 82.9 °F 50.0 °F 32% 29.76 in 10.0 mi South 12.7 mph 18.4 mph N/A   Clear
5:53 PM 82.9 °F 46.0 °F 27% 29.75 in 10.0 mi South 9.2 mph - N/A   Clear
6:53 PM 82.0 °F 48.0 °F 30% 29.73 in 10.0 mi SSE 6.9 mph - N/A   Clear
7:53 PM 80.1 °F 46.9 °F 31% 29.73 in 10.0 mi SSW 6.9 mph - N/A   Clear
8:53 PM 73.0 °F 46.9 °F 39% 29.74 in 10.0 mi SSW 8.1 mph - N/A   Clear
9:53 PM 69.1 °F 46.9 °F 45% 29.75 in 10.0 mi SW 6.9 mph - N/A   Clear
10:53 PM 66.0 °F 48.0 °F 52% 29.77 in 10.0 mi South 8.1 mph - N/A   Clear